Location: Recife
(8.0585°S, 34.8848°W)
Time: 10:13:49
(UTC-03:00)

Explorer 7 - Pass Details

Date: 19 April 2026
Orbit: 427 x 536 km, 50.2° (Epoch: 14 May)

Event Time Altitude Azimuth Distance (km) Brightness Sun altitude
Rises 00:06:31 0° 319° (NW) 2,487 - -77.8°
Reaches altitude 10° 00:08:42 10° 317° (NW) 1,596 - -77.3°
Maximum altitude 00:12:17 71° 233° (SW) 477 - -76.5°
Drops below altitude 10° 00:15:46 10° 148° (SSE) 1,553 - -75.6°
Sets 00:17:52 0° 146° (SE) 2,413 - -75.1°
